Llagostera





Hora UTC 20:20
Temperatura 1.5 ºC
Humitat 92.0 %
Pressió 1003.6 hPa
Pluja 0.2 mm
Velocitat vent 0.0 km/h
Direcció vent

Dades diàries 2019-11-15



Hora UTC (hivern +1h; estiu +2h)
Temperatura (ºC) Humitat (%) Pressió (hPa) Velocitat vent (km/h) Precipitació (mm)
Hora UTC Aire Humitat Pressió Vel. Dir. Vel. Max Dir. Intent. màx 5 min.
00:05 1.4 95.0 1000.3 0.0 6.4 0.0
00:10 1.3 95.0 1000.2 0.0 6.4 0.0
00:15 1.2 95.0 1000.2 0.0 6.4 0.0
00:20 1.0 95.0 1000.3 0.0 6.4 0.0
00:25 1.0 95.0 1000.2 0.0 6.4 0.0
00:30 1.1 95.0 1000.2 0.0 6.4 0.0
00:35 0.9 95.0 1000.4 0.0 6.4 0.0
00:40 0.8 95.0 1000.2 0.0 6.4 0.0
00:45 0.8 95.0 1000.1 0.0 6.4 0.0
00:50 0.8 95.0 1000.2 0.0 6.4 0.0
00:55 0.6 95.0 1000.2 1.6 6.4 0.0
01:00 0.7 95.0 1000.1 3.2 6.4 0.0
01:05 0.6 95.0 1000.2 3.2 6.4 0.0
01:10 0.6 95.0 1000.3 1.6 6.4 0.0
01:15 0.6 95.0 1000.3 0.0 6.4 0.0
01:20 0.7 95.0 1000.3 0.0 6.4 0.0
01:25 0.7 95.0 1000.4 0.0 6.4 0.0
01:30 0.7 95.0 1000.3 0.0 6.4 0.0
01:35 0.8 95.0 1000.4 0.0 6.4 0.0
01:40 0.8 95.0 1000.4 0.0 6.4 0.0
01:45 0.8 95.0 1000.4 0.0 6.4 0.0
01:50 0.8 95.0 1000.5 0.0 6.4 0.0
01:55 0.8 95.0 1000.6 0.0 6.4 0.0
02:00 0.9 95.0 1000.6 0.0 6.4 0.0
02:05 0.8 95.0 1000.6 0.0 6.4 0.0
02:10 0.8 95.0 1000.5 0.0 6.4 0.0
02:15 0.8 95.0 1000.5 0.0 6.4 0.0
02:20 0.8 95.0 1000.6 0.0 6.4 0.0
02:25 0.9 96.0 1000.5 0.0 6.4 0.0
02:30 0.9 96.0 1000.6 0.0 6.4 0.0
02:35 1.1 96.0 1000.6 0.0 6.4 0.0
02:40 1.1 96.0 1000.6 0.0 6.4 0.0
02:45 1.2 96.0 1000.6 0.0 6.4 0.0
02:50 1.2 96.0 1000.6 0.0 6.4 0.0
02:55 1.3 96.0 1000.7 0.0 6.4 0.0
03:00 1.3 96.0 1000.6 0.0 6.4 0.0
03:05 1.3 96.0 1000.5 0.0 6.4 0.0
03:10 1.3 95.0 1000.6 0.0 6.4 0.0
03:15 1.2 95.0 1000.6 0.0 6.4 0.0
03:20 1.2 95.0 1000.6 0.0 6.4 0.0
03:25 1.0 95.0 1000.5 0.0 6.4 0.0
03:30 0.9 95.0 1000.5 0.0 6.4 0.0
03:35 0.8 95.0 1000.5 0.0 6.4 0.0
03:40 0.8 95.0 1000.6 0.0 6.4 0.0
03:45 0.8 95.0 1000.6 0.0 6.4 0.0
03:50 0.8 96.0 1000.6 0.0 6.4 0.2
03:55 0.8 96.0 1000.6 0.0 6.4 0.0
04:00 0.8 96.0 1000.6 0.0 6.4 0.0
04:05 0.8 96.0 1000.7 0.0 6.4 0.0
04:10 0.8 96.0 1000.8 0.0 6.4 0.0
04:15 0.8 96.0 1000.7 0.0 6.4 0.0
04:20 0.8 96.0 1000.5 0.0 6.4 0.0
04:25 0.8 96.0 1000.6 0.0 6.4 0.0
04:30 0.8 96.0 1000.6 0.0 6.4 0.0
04:35 0.9 96.0 1000.5 0.0 6.4 0.0
04:40 1.0 96.0 1000.6 0.0 6.4 0.0
04:45 1.1 96.0 1000.6 0.0 6.4 0.0
04:50 1.2 96.0 1000.6 0.0 6.4 0.0
04:55 1.2 96.0 1000.6 0.0 6.4 0.0
05:00 1.2 96.0 1000.7 0.0 6.4 0.0
05:05 1.2 96.0 1000.7 0.0 6.4 0.0
05:10 1.2 96.0 1000.6 0.0 6.4 0.0
05:15 1.1 96.0 1000.5 0.0 6.4 0.0
05:20 1.1 96.0 1000.7 0.0 6.4 0.0
05:25 1.0 96.0 1000.7 0.0 6.4 0.0
05:30 1.1 96.0 1000.7 0.0 6.4 0.0
05:35 1.2 96.0 1000.7 0.0 6.4 0.0
05:40 1.3 96.0 1000.9 0.0 6.4 0.0
05:45 1.3 96.0 1000.8 0.0 6.4 0.0
05:50 1.4 96.0 1000.8 0.0 6.4 0.0
05:55 1.4 96.0 1000.7 0.0 6.4 0.0
06:00 1.4 96.0 1000.6 0.0 6.4 0.0
06:05 1.4 96.0 1000.6 0.0 6.4 0.0
06:10 1.4 96.0 1000.6 0.0 6.4 0.0
06:15 1.4 96.0 1000.6 0.0 6.4 0.0
06:20 1.3 96.0 1000.7 0.0 6.4 0.0
06:25 1.3 96.0 1000.6 0.0 6.4 0.0
06:30 1.3 96.0 1000.8 0.0 6.4 0.0
06:35 1.2 96.0 1000.7 0.0 6.4 0.0
06:40 1.2 96.0 1000.7 0.0 6.4 0.0
06:45 1.2 96.0 1000.8 0.0 6.4 0.0
06:50 1.2 96.0 1000.9 0.0 6.4 0.0
06:55 1.2 96.0 1000.9 0.0 6.4 0.0
07:00 1.2 96.0 1000.8 0.0 6.4 0.0
07:05 1.2 96.0 1001.0 0.0 6.4 0.0
07:10 1.3 96.0 1001.0 0.0 6.4 0.0
07:15 1.3 96.0 1001.0 0.0 6.4 0.0
07:20 1.4 96.0 1001.2 0.0 6.4 0.0
07:25 1.6 96.0 1001.3 0.0 6.4 0.0
07:30 1.7 96.0 1001.5 1.6 6.4 0.0
07:35 2.1 97.0 1001.4 3.2 6.4 0.0
07:40 2.2 97.0 1001.4 3.2 6.4 0.0
07:45 2.5 97.0 1001.6 3.2 6.4 0.0
07:50 2.8 97.0 1001.6 3.2 6.4 0.0
07:55 2.9 97.0 1001.7 3.2 6.4 0.0
08:00 3.1 97.0 1001.7 1.6 6.4 0.0
08:05 3.2 97.0 1001.8 1.6 6.4 0.0
08:10 3.4 97.0 1001.7 3.2 6.4 0.0
08:15 3.5 97.0 1001.8 3.2 6.4 0.0
08:20 3.6 97.0 1001.9 3.2 6.4 0.0
08:25 3.6 97.0 1001.9 4.8 6.4 0.0
08:30 3.6 96.0 1001.9 3.2 6.4 0.0
08:35 3.6 96.0 1001.9 1.6 6.4 0.0
08:40 3.6 96.0 1001.9 1.6 6.4 0.0
08:45 3.7 96.0 1001.9 1.6 6.4 0.0
08:50 3.7 96.0 1001.8 0.0 6.4 0.0
08:55 3.8 96.0 1001.8 0.0 6.4 0.0
09:00 4.1 96.0 1001.8 1.6 6.4 0.0
09:05 4.2 96.0 1001.8 1.6 6.4 0.0
09:10 4.3 96.0 1001.9 0.0 6.4 0.0
09:15 4.4 96.0 1001.8 3.2 8.0 0.0
09:20 4.4 96.0 1001.9 3.2 8.0 0.0
09:25 4.4 96.0 1001.8 0.0 8.0 0.0
09:30 4.4 96.0 1001.7 0.0 8.0 0.0
09:35 4.5 96.0 1001.6 0.0 8.0 0.0
09:40 4.6 96.0 1001.4 0.0 8.0 0.0
09:45 4.7 96.0 1001.5 0.0 8.0 0.0
09:50 4.8 96.0 1001.5 0.0 8.0 0.0
09:55 5.0 96.0 1001.7 1.6 8.0 0.0
10:00 5.1 96.0 1001.7 3.2 8.0 0.0
10:05 5.2 96.0 1001.8 4.8 8.0 0.0
10:10 5.2 95.0 1001.6 1.6 8.0 0.0
10:15 5.3 95.0 1001.6 1.6 8.0 0.0
10:20 5.2 95.0 1001.5 0.0 8.0 0.0
10:25 5.2 95.0 1001.5 0.0 8.0 0.0
10:30 5.3 95.0 1001.5 0.0 8.0 0.0
10:35 5.4 95.0 1001.4 1.6 8.0 0.0
10:40 5.6 95.0 1001.2 1.6 8.0 0.0
10:45 5.6 95.0 1001.2 1.6 8.0 0.0
10:50 5.8 95.0 1001.2 0.0 8.0 0.0
10:55 5.9 94.0 1001.2 0.0 8.0 0.0
11:00 6.0 94.0 1001.2 0.0 8.0 0.0
11:05 6.1 94.0 1001.1 0.0 8.0 0.0
11:10 6.2 94.0 1001.2 0.0 8.0 0.0
11:15 6.3 94.0 1001.1 0.0 8.0 0.0
11:20 6.4 93.0 1001.1 0.0 8.0 0.0
11:25 6.7 94.0 1001.0 0.0 8.0 0.0
11:30 6.9 94.0 1001.0 0.0 8.0 0.0
11:35 7.1 93.0 1000.9 0.0 8.0 0.0
11:40 7.2 93.0 1000.9 0.0 8.0 0.0
11:45 7.3 92.0 1000.8 0.0 8.0 0.0
11:50 7.4 92.0 1000.7 0.0 8.0 0.0
11:55 7.6 92.0 1000.6 0.0 8.0 0.0
12:00 7.7 92.0 1000.6 0.0 8.0 0.0
12:05 7.8 92.0 1000.5 0.0 8.0 0.0
12:10 8.0 92.0 1000.4 0.0 8.0 0.0
12:15 8.2 91.0 1000.5 0.0 8.0 0.0
12:20 8.2 91.0 1000.4 0.0 8.0 0.0
12:25 8.3 91.0 1000.4 0.0 8.0 0.0
12:30 8.4 90.0 1000.3 0.0 8.0 0.0
12:35 8.5 89.0 1000.3 0.0 8.0 0.0
12:40 8.6 90.0 1000.3 0.0 8.0 0.0
12:45 8.7 89.0 1000.2 0.0 8.0 0.0
12:50 8.8 89.0 1000.2 0.0 8.0 0.0
12:55 8.9 88.0 1000.2 0.0 8.0 0.0
13:00 9.0 87.0 1000.2 0.0 8.0 0.0
13:05 9.1 87.0 1000.1 0.0 8.0 0.0
13:10 9.1 88.0 1000.1 0.0 8.0 0.0
13:15 9.2 87.0 1000.1 0.0 8.0 0.0
13:20 9.4 88.0 1000.0 0.0 8.0 0.0
13:25 9.5 87.0 999.9 0.0 8.0 0.0
13:30 9.7 88.0 999.9 0.0 8.0 0.0
13:35 9.9 87.0 999.9 0.0 8.0 0.0
13:40 10.1 86.0 999.9 0.0 8.0 0.0
13:45 10.2 86.0 999.8 0.0 8.0 0.0
13:50 10.2 86.0 999.8 0.0 8.0 0.0
13:55 10.3 86.0 999.8 0.0 8.0 0.0
14:00 10.5 85.0 999.9 0.0 8.0 0.0
14:05 10.6 86.0 999.8 0.0 9.7 0.0
14:10 10.8 86.0 999.8 1.6 9.7 0.0
14:15 11.0 84.0 999.8 1.6 9.7 0.0
14:20 11.2 84.0 1000.0 0.0 9.7 0.0
14:25 11.1 81.0 999.7 3.2 16.1 0.0
14:30 11.2 82.0 999.7 8.0 16.1 0.0
14:35 11.2 81.0 999.7 9.7 17.7 0.0
14:40 11.2 81.0 999.7 8.0 17.7 0.0
14:45 11.3 81.0 999.7 8.0 17.7 0.0
14:50 11.3 78.0 999.7 8.0 17.7 0.0
14:55 11.3 77.0 999.6 9.7 17.7 0.0
15:00 11.3 77.0 999.6 9.7 17.7 0.0
15:05 11.2 75.0 999.6 8.0 17.7 0.0
15:10 10.9 75.0 999.5 9.7 17.7 0.0
15:15 10.7 76.0 999.7 9.7 17.7 0.0
15:20 10.6 77.0 999.6 8.0 17.7 0.0
15:25 10.5 78.0 999.6 8.0 17.7 0.0
15:30 10.4 78.0 999.6 6.4 17.7 0.0
15:35 10.3 77.0 999.7 6.4 17.7 0.0
15:40 10.2 77.0 999.8 6.4 17.7 0.0
15:45 10.1 77.0 999.7 6.4 17.7 0.0
15:50 10.0 78.0 999.7 3.2 17.7 0.0
15:55 9.8 81.0 999.8 1.6 17.7 0.0
16:00 9.6 80.0 999.9 1.6 17.7 0.0
16:05 9.4 76.0 999.9 6.4 17.7 0.0
16:10 9.3 77.0 1000.0 6.4 17.7 0.0
16:15 9.2 76.0 1000.0 4.8 17.7 0.0
16:20 9.0 76.0 1000.3 4.8 17.7 0.0
16:25 8.8 77.0 1000.2 4.8 17.7 0.0
16:30 8.5 78.0 1000.4 4.8 17.7 0.0
16:35 8.3 78.0 1000.4 4.8 17.7 0.0
16:40 8.1 79.0 1000.4 6.4 17.7 0.0
16:45 7.8 80.0 1000.4 4.8 17.7 0.0
16:50 7.6 79.0 1000.5 6.4 17.7 0.0
16:55 7.5 81.0 1000.5 6.4 17.7 0.0
17:00 7.3 82.0 1000.6 6.4 17.7 0.0
17:05 7.2 81.0 1000.7 6.4 17.7 0.0
17:10 7.1 81.0 1000.9 6.4 17.7 0.0
17:15 7.1 82.0 1000.9 6.4 17.7 0.0
17:20 7.1 82.0 1001.1 6.4 17.7 0.0
17:25 6.9 82.0 1001.1 4.8 17.7 0.0
17:30 6.8 82.0 1001.2 6.4 17.7 0.0
17:35 6.8 81.0 1001.3 6.4 17.7 0.0
17:40 6.8 82.0 1001.4 4.8 17.7 0.0
17:45 6.7 82.0 1001.4 3.2 17.7 0.0
17:50 6.4 83.0 1001.4 3.2 17.7 0.0
17:55 6.2 83.0 1001.5 4.8 17.7 0.0
18:00 5.9 84.0 1001.7 4.8 17.7 0.0
18:05 5.7 85.0 1001.8 4.8 17.7 0.0
18:10 5.4 86.0 1001.9 3.2 17.7 0.0
18:15 5.2 87.0 1001.9 3.2 17.7 0.0
18:20 4.9 87.0 1002.0 3.2 17.7 0.0
18:25 4.6 88.0 1002.2 0.0 17.7 0.0
18:30 4.3 88.0 1002.3 1.6 17.7 0.0
18:35 3.9 89.0 1002.3 3.2 17.7 0.0
18:40 3.6 89.0 1002.4 4.8 17.7 0.0
18:45 3.5 90.0 1002.4 1.6 17.7 0.0
18:50 3.3 90.0 1002.4 0.0 17.7 0.0
18:55 3.2 90.0 1002.5 0.0 17.7 0.0
19:00 3.1 91.0 1002.4 0.0 17.7 0.0
19:05 2.9 91.0 1002.5 0.0 17.7 0.0
19:10 2.8 91.0 1002.4 1.6 17.7 0.0
19:15 2.8 91.0 1002.5 4.8 17.7 0.0
19:20 2.8 91.0 1002.7 3.2 17.7 0.0
19:25 2.8 92.0 1002.8 0.0 17.7 0.0
19:30 2.7 92.0 1002.9 0.0 17.7 0.0
19:35 2.6 92.0 1003.0 0.0 17.7 0.0
19:40 2.5 92.0 1003.1 0.0 17.7 0.0
19:45 2.4 92.0 1003.0 0.0 17.7 0.0
19:50 2.2 91.0 1003.1 0.0 17.7 0.0
19:55 2.1 92.0 1003.2 0.0 17.7 0.0
20:00 2.0 92.0 1003.3 0.0 17.7 0.0
20:05 1.9 92.0 1003.4 0.0 17.7 0.0
20:10 1.8 92.0 1003.4 0.0 17.7 0.0
20:15 1.7 92.0 1003.5 0.0 17.7 0.0
20:20 1.5 92.0 1003.6 0.0 17.7 0.0
Màxima 11.3 97.0 1003.6 9.7 17.7 0.2
Mínima 0.6 75.0 999.5
Total 0.2